{"data":{"norad_id":48695,"intl_designator":"2021-044BK","name":"STARLINK-2616","alt_names":[],"object_type":"PAYLOAD","status":"ACTIVE","operator":null,"country":"US","launch_date":"2021-05-26","launch_site_code":"AFETR","launch_vehicle":null,"mission":null,"orbit_class":"UNKNOWN","rcs_meters":null,"size_class":null,"mass_kg":null,"dimensions":null,"purposes":["comms"],"wikipedia_slug":null,"has_3d_model":false,"image_url":null,"decayed_at":null,"tle_current":{"epoch":"2026-09-19T16:51:18.271584Z","epoch_age_seconds":110265,"freshness":"FRESH","line1":"1 48695U 21044BK  26262.70229481 -.00000252  00000+0  36433-5 0  9997","line2":"2 48695  53.1596 254.8883 0001429  93.5038 266.6127 15.31690455294065","mean_motion":15.31690455,"eccentricity":0.0001429,"inclination_deg":53.1596,"raan_deg":254.8883,"arg_perigee_deg":93.5038,"mean_anomaly_deg":266.6127,"bstar":3.6433e-6,"rev_number":29406,"period_min":94.013773820899,"perigee_km":469.78973993313,"apogee_km":471.74715711032,"semimajor_km":6848.9054485217,"source":"CELESTRAK","updated_at":"2026-09-20T09:00:39.245930Z"}}}